map of SZA home
SZA - Airport
Location
City:  Soyo, Zaire, Angola
ICAO:FNSO
IATA:SZA

Details
Type:Airport (Aerodrome, Airfield)
Latitude:608'28"S (-6.141085)
Longitude:1222'18"E (12.371764)
Datum:WGS 1984
Elevation:15 ft (5 m)
Variation:2.88W (WMM2015 magnetic declination)
0.16 annual change
Runways:1
Longest:6857 × 174 ft (2090 × 53 m), paved

Time
Time Zone:UTC+1
Local Time:

Weather
TAF:FNSO 271045Z 2712/2724 23010KT 9000 FEW020 SCT025
TEMPO 2714/2718 17006KT 9999 FEW018 SCT023
BECMG 2721/2723 21005KT SCT020

Related Locations
Nearby:
Farthest:PLPA: 12067 mi / 19421 km
Palmyra Island Atoll [Palmyra Airport (Cooper)], UM

Find:

   beyond  
but within

Other Information
Maps:
NOTAMs:
Links:
Sources:

  
flag of Angola   

Sectional Chart

Flight Planning
at skyvector.com

Satellite Image

Google Maps Satellite view

 

Copyright © 2004-2017 Karl L. Swartz. All rights reserved.
The Great Circle Mapper name and logo are trademarks of the Great Circle Mapper.
All other trademarks mentioned herein belong to their respective owners.
Please see credits for attibutions and further copyright information.

  Follow gcmap on Facebook Follow gcmap on Twitter Follow gcmap on Google+ GCmap on LinkedIn

hCard Microformat

Geo Microformat